Flag for United Kingdom Weather past 2 weeks in Cheltenham, England, United Kingdom

Now
55 °F

Broken clouds.


Feels Like: 51 °F
Forecast: 44 / 54 °F
Wind: 20 mph from Southwest

Location: Staverton Private

Current Time: Mar 28, 2015 at 9:45:53 AM

Latest Report: Mar 28, 2015 at 9:20 AM


Visibility: N/A

Pressure: 29.83 "Hg

Humidity: 82%

Dew point: 50 °F

Location of CheltenhamLocation

Historic Weather in Cheltenham — Graph

°F

Cheltenham temperature yesterday

Maximum temperature yesterday: 54 °F (at 2:20 PM)
Minimum temperature yesterday: 41 °F (at 7:50 AM)
Average temperature yesterday: 50 °F

Past Weeks' High & Low Weather Summary

 TemperatureHumidityPressure
High57 °F (Mar 20, 3:20 PM)100% (Mar 13, 12:50 PM)30.57 "Hg (Mar 13, 12:50 PM)
Low34 °F (Mar 18, 6:50 AM)44% (Mar 25, 4:20 PM)29.50 "Hg (Mar 26, 6:50 AM)
Average46 °F76%30.19 "Hg
* Reported Mar 13 7:50 AM — Mar 27 7:20 PM, Cheltenham, Weather by CustomWeather, © 2015

Note: Actual official high and low records may vary slightly from our data, if they occured in-between our weather recording intervals... More about our weather records

Advertising

Cheltenham weather history for previous 24 hours

 ConditionsComfort  
Time TempWeatherWind HumidityBarometerVisibility
7:20 PM
Fri, Mar 27
50 °FPassing clouds.3 mph67%30.09 "HgN/A
6:50 PM46 °FPassing clouds.3 mph76%30.09 "HgN/A
6:20 PM48 °FPassing clouds.3 mph66%30.09 "HgN/A
5:50 PM52 °FPassing clouds.5 mph58%30.09 "HgN/A
5:20 PM52 °FPassing clouds.6 mph58%30.09 "HgN/A
4:50 PM54 °FPassing clouds.7 mph54%30.09 "HgN/A
4:20 PM54 °FPassing clouds.6 mph54%30.09 "HgN/A
3:20 PM52 °FPassing clouds.6 mph58%30.12 "HgN/A
2:50 PM54 °FScattered clouds.6 mph54%30.12 "HgN/A
2:20 PM54 °FScattered clouds.7 mph54%30.09 "HgN/A
1:50 PM52 °FScattered clouds.5 mph58%30.12 "HgN/A
1:20 PM52 °FScattered clouds.7 mph58%30.12 "HgN/A
12:50 PM52 °FScattered clouds.6 mph58%30.12 "HgN/A
12:20 PM52 °FScattered clouds.9 mph50%30.12 "HgN/A
11:50 AM50 °FPassing clouds.8 mph62%30.12 "HgN/A
11:20 AM50 °FPassing clouds.5 mph62%30.12 "HgN/A
10:50 AM48 °FPassing clouds.7 mph66%30.12 "HgN/A
10:20 AM50 °FPassing clouds.7 mph58%30.12 "HgN/A
9:50 AM48 °FPassing clouds.5 mph66%30.12 "HgN/A
9:20 AM46 °FSunny.5 mph76%30.12 "Hg10 mi
Weather by CustomWeather, © 2015

See weather overviewHow to use our weather pages